Regional Weather Roundup
Issued by NWS Cleveland, OH

Home | Current Version | Previous Version | Text Only | Print | Product List | Glossary Off
Versions: 1 2 3 4 5 6 7 8 9 10 11 12 13 14 15 16 17 18 19 20 21 22 23 24 25 26 27 28 29 30 31 32 33 34 35 36 37 38 39 40 41 42 43 44 45 46 47 48 49 50

000
ASUS41 KCLE 280402
RWRCLE
OHIO REGIONAL WEATHER ROUNDUP
NATIONAL WEATHER SERVICE CLEVELAND, OH
1200 AM EDT THU JUL 28 2016

NOTE: "FAIR" INDICATES FEW OR NO CLOUDS BELOW 12,000 FEET WITH NO
SIGNIFICANT WEATHER AND/OR OBSTRUCTIONS TO VISIBILITY.

OHZ001>008-015>018-024>027-034-035-043-044-280500-
   NORTHWEST OHIO

CITY           SKY/WX    TMP DP  RH WIND       PRES   REMARKS
DEFIANCE       PTCLDY    74  66  76 CALM      29.94F
FINDLAY        CLEAR     76  61  59 CALM      29.94F
TOLEDO EXPRESS CLEAR     72  66  83 CALM      29.95F
TOLEDO EXEC    CLEAR     75  66  73 MISG      29.95S
LIMA           CLEAR     72  66  81 CALM      29.96F
$$

OHZ009>014-019>023-028>033-038-089-280500-
   NORTHEAST OHIO

CITY           SKY/WX    TMP DP  RH WIND       PRES   REMARKS
CLE-HOPKINS    PTCLDY    74  59  59 S3        29.98R
CLE-LAKEFRONT  PTCLDY    80  57  45 S8        29.94S
CUY CO. ARPT   NOT AVBL
LORAIN-ELYRIA  PTCLDY    69  61  75 CALM      29.97R
ASHTABULA      CLEAR     65  63  93 CALM      29.98R
AKRON-CANTON   PTCLDY    73  60  63 NE5       29.98S
WOOSTER        CLOUDY    70  62  76 NE5       29.98S
MANSFIELD      CLOUDY    74  62  66 CALM      29.99S
YOUNGSTOWN     MOCLDY    69  61  75 NE5       29.98R
$$

OHZ042-051>053-060>062-070>072-077>081-280500-
  SOUTHWEST OHIO

CITY           SKY/WX    TMP DP  RH WIND       PRES   REMARKS
CINC-COVINGTON CLOUDY    77  74  90 CALM      29.97R
CINC-LUNKEN    LGT RAIN  76  75  97 S5        29.96R
HAMILTON       CLOUDY    77  71  82 CALM      29.96S
DAYTON         CLOUDY    77  63  61 CALM      29.98S
WRIGHT-PAT AFB CLOUDY    79  67  68 N2        29.96S
DAYTON GENERAL CLOUDY    81  65  58 N5        29.96S
WILMINGTON     CLOUDY    76  73  91 SW3       29.97R
$$

OHZ036-037-039>041-045>050-054>059-063>069-073>076-082>088-280500-
  CENTRAL AND SOUTHEAST OHIO

CITY           SKY/WX    TMP DP  RH WIND       PRES   REMARKS
COLUMBUS       CLOUDY    78  67  68 E3        29.94F
OSU AIRPORT    CLOUDY    79  65  62 CALM      29.95S
BOLTON FIELD   CLOUDY    78  72  81 CALM      29.96S
RICKENBACK AFB CLOUDY    80  70  72 CALM      29.94S
NEWARK         CLOUDY    73  70  90 CALM      29.95S
MARION         MOCLDY    75  63  66 NE3       29.97S
LANCASTER      CLOUDY    75  73  93 CALM      29.95F
ZANESVILLE     CLOUDY    77  69  76 S5        29.95S
NEW PHILLY     PTCLDY    79  61  53 NE5       29.96S
$$



USA.gov is the U.S. government's official web portal to all federal, state and local government web resources and services.